Погода в Черменине

Россия / Костромская область     59°03′04″N   43°59′48″E
темп.,
°C
ветер,
м/с
пор.,
м/с
влажн.,
%
обл.,
%
осадки,
мм/ч
давл.,
гПа
погр.,
м
21 апреля, ср
ср2100:00+1вюв41478100 0.0 1024392
03:00+1вюв51467100 0.0 1022463
06:00+2вюв61761100 0.0 1018725
09:00+5юв71757100 0.1 10161091
12:00+2юв71695100 1.3 1014859
15:00+3юв71688100 1.4 1012852
18:00+3юв71685100 0.1 1011919
21:00+3юв61590100 0.2 1011929
22 апреля, чт
чт2200:00+3ююв41394100 0.1 1011778
03:00+3ю3797100 0.2 1012456
06:00+3ююз3893100 0.0 1013493
09:00+4ююз4989100 0.0 1015572
12:00+6ююз4885100 0.1 1016923
15:00+8ююз477297 0.4 10161183
18:00+7ююз4882100 0.2 1017610
21:00+4ю399518 0.2 1019260
23 апреля, пт
пт2300:00+3ю3119324 0.0 1019330
03:00+2ююв28945 0.0 1020166
06:00+4ююв4118610 0.0 1020305
09:00+9ююв5106820 0.0 1020637
12:00+9ююв4117599 0.0 1020635
15:00+13ю486595 0.1 10191401
18:00+12ююв4976100 0.4 1019683
21:00+9ююв4118982 1.8 1020427
24 апреля, сб
сб2400:00+7юв3109563 0.1 1019260
03:00+6юв31092100 0.3 1018265
06:00+7юв3108873 0.0 1017342
09:00+11юв5106863 0.0 1016764
12:00+13юв585269 0.1 10141835
15:00+13юв585274 0.3 10121989
18:00+11вюв59625 0.0 10111088
21:00+7вюв413725 0.0 1010582
25 апреля, вс
вс2500:00+6в4128218 0.0 1008366
03:00+6в41186100 0.0 1006551
06:00+6вюв41187100 0.0 1005636
09:00+7вюв4880100 0.1 1003885
12:00+5ю3595100 1.1 1003815
15:00+3юз3897100 2.9 1005560
18:00+3юз3897100 0.4 1006577
21:00+3юз4995100 0.6 1007732